Flag for Canada Weather past 2 weeks in Happy Valley-Goose Bay, Newfoundland and Labrador, Canada

Now
46 °F

Light rain. Fog.


Feels Like: 39 °F
Forecast: 48 / 53 °F
Wind: 17 mph from Northeast

Location: Goose

Current Time: Sep 22, 2014 at 9:12:34 AM

Latest Report: Sep 22, 2014 at 8:00 AM


Visibility: 3 mi

Pressure: 29.69 "Hg

Humidity: 100%

Dew point: 46 °F

Location of Happy Valley-Goose BayLocation

Historic Weather in Happy Valley-Goose Bay — Graph

°F

Happy Valley-Goose Bay temperature yesterday

Maximum temperature yesterday: 55 °F (at 1:00 PM)
Minimum temperature yesterday: 48 °F (at 12:00 AM)
Average temperature yesterday: 51 °F

Past Weeks' High & Low Weather Summary

 TemperatureHumidityPressure
High77 °F (Sep 9, 4:00 PM)100% (Sep 14, 11:00 PM)30.34 "Hg (Sep 14, 11:00 PM)
Low32 °F (Sep 18, 6:00 AM)34% (Sep 8, 5:00 PM)29.15 "Hg (Sep 12, 8:00 AM)
Average48 °F73%29.88 "Hg
* Reported Sep 7 8:00 AM — Sep 22 8:00 AM, Happy Valley-Goose Bay, Weather by CustomWeather, © 2014

Note: Actual official high and low records may vary slightly from our data, if they occured in-between our weather recording intervals... More about our weather records

Advertising

Happy Valley-Goose Bay weather history for previous 24 hours

 ConditionsComfort  
Time TempWeatherWind HumidityBarometerVisibility
8:00 AM
Sep 22
46 °FLight rain. Fog.17 mph100%29.69 "Hg3 mi
7:00 AM46 °FLight rain. Fog.17 mph93%29.73 "Hg4 mi
6:00 AM46 °FLight rain. Fog.15 mph93%29.73 "Hg5 mi
5:00 AM48 °FSprinkles. Fog.12 mph94%29.75 "Hg5 mi
4:00 AM48 °FFog.8 mph94%29.76 "Hg5 mi
3:00 AM48 °FFog.7 mph100%29.77 "Hg5 mi
2:00 AM48 °FDrizzle. Fog.7 mph100%29.76 "Hg5 mi
1:00 AM48 °FDrizzle. Fog.6 mph100%29.76 "Hg4 mi
12:47 AMN/ADrizzle.6 mphN/AN/A4 mi
12:00 AM48 °FDrizzle. Fog.7 mph100%29.75 "Hg4 mi
11:00 PM
Sep 21
48 °FDrizzle. Fog.8 mph100%29.74 "Hg4 mi
10:00 PM48 °FDrizzle. Fog.8 mph100%29.71 "Hg4 mi
9:00 PM50 °FLight rain. Fog.8 mph100%29.70 "Hg3 mi
8:00 PM50 °FLight rain. Fog.6 mph100%29.69 "Hg6 mi
7:00 PM50 °FLight rain. Fog.5 mph100%29.67 "Hg1 mi
6:00 PM52 °FLight rain. Fog.5 mph94%29.68 "Hg5 mi
5:00 PM52 °FLight rain. More clouds than sun.3 mph94%29.67 "Hg7 mi
4:00 PM54 °FLight rain. Mostly cloudy.5 mph88%29.67 "Hg10 mi
3:00 PM54 °FLight rain. More clouds than sun.No wind88%29.67 "Hg12 mi
2:00 PM55 °FSprinkles. Cloudy.2 mph77%29.69 "Hg15 mi
1:00 PM55 °FMostly cloudy.5 mph77%29.70 "Hg15 mi
12:00 PM54 °FMore clouds than sun.3 mph77%29.70 "Hg15 mi
11:00 AM52 °FSprinkles. Mostly cloudy.2 mph88%29.71 "Hg15 mi
10:00 AM50 °FSprinkles. Mostly cloudy.3 mph88%29.69 "Hg15 mi
9:52 AMN/ASprinkles.3 mphN/AN/A15 mi
9:00 AM48 °FMostly cloudy.No wind87%29.70 "Hg15 mi
Weather by CustomWeather, © 2014

See weather overviewHow to use our weather pages